Regional Weather Roundup
Issued by NWS

Home | Current Version | Previous Version | Graphics & Text | Print | Product List | Glossary On
Versions: 1 2 3 4 5 6 7 8 9 10 11 12 13 14 15 16 17 18 19 20 21 22 23 24 25 26 27 28 29 30 31 32 33 34 35 36 37 38 39 40 41 42 43 44 45 46 47 48 49 50
000
ASUS43 KLMK 241102
RWRKY
KENTUCKY REGIONAL WEATHER ROUNDUP
NATIONAL WEATHER SERVICE LOUISVILLE KY
600 AM EST TUE JAN 24 2017

NOTE "FAIR" INDICATES FEW OR NO CLOUDS BELOW 12,000 FEET
WITH NO SIGNIFICANT WEATHER AND/OR OBSTRUCTIONS TO VISIBILITY.

KYZ001>023-026-027-061>063-070>075-241200-
WESTERN AND SOUTH CENTRAL KENTUCKY

CITY           SKY/WX    TMP DP  RH WIND       PRES   REMARKS
PADUCAH        CLOUDY    41  32  70 NW3       29.90R
HENDERSON      CLOUDY    41  34  75 N5        29.88R
OWENSBORO      CLOUDY    40  35  83 N8        29.89R WCI  34
HOPKINSVILLE   CLOUDY    40  34  78 NW5       29.89R
BOWLING GREEN  CLOUDY    42  35  76 W8        29.88R
GLASGOW        NOT AVBL
$$

KYZ024-025-028>034-038-045-046-053-241200-
NORTH CENTRAL KENTUCKY

CITY           SKY/WX    TMP DP  RH WIND       PRES   REMARKS
LOUISVILLE/SDF CLOUDY    40  35  83 W9        29.85R WCI  34
LOUISVILLE/LOU CLOUDY    40  36  86 W9        29.86R WCI  34
FORT KNOX      CLOUDY    38  36  91 W6        29.84R WCI  34
$$

KYZ035>037-039>044-047>052-055>060-089>105-241200-
NORTHEAST KENTUCKY

CITY           SKY/WX    TMP DP  RH WIND       PRES   REMARKS
LEXINGTON      CLOUDY    40  37  89 W12       29.81R WCI  33
COVINGTON      DRIZZLE   40  39  97 W13       29.77R WCI  32
FRANKFORT      CLOUDY    41  37  86 W6        29.80R
$$

KYZ054-064>069-076>088-106>120-241200-
SOUTHEAST KENTUCKY

CITY           SKY/WX    TMP DP  RH WIND       PRES   REMARKS
JACKSON        CLOUDY    40  39  97 W9G20     29.75R FOG     WCI  34
LONDON         CLOUDY    39  32  76 W8        29.80R HAZE    WCI  33
SOMERSET       CLOUDY    37  37 100 W7        29.84R FOG     WCI  32
MIDDLESBORO    CLOUDY    41  39  92 W8        29.80R
MONTICELLO     CLOUDY    39  38  96 W8        29.86R WCI  33
$$





USA.gov is the U.S. government's official web portal to all federal, state and local government web resources and services.